Content
SEND FEEDBACK

Daily
Averages
Monthly
Summary
United States of America

STATEN ISLAND, NEW YORK


Home > North America > United States > New York
Elevation: 152 feet     Latitude: 40 35N     Longitude: 074 09W

WEATHER
 
SELECT A DAY
Number of Records: 189,916;   Date Range: 1/1/95 - 9/20/14
 
SHARE

PRINT THIS DATA

[ ← Previous Day ]
WEATHER ALMANAC - JULY 26, 2013
[ Next Day → ]
[ °C ]   °F
Weather ElementAverageHighLow
Temperature74.6 °F84 °F (3:51 pm)66.9 °F (1:51 am)
Dewpoint58.5 °F64.9 °F (10:51 pm)55 °F (3:51 pm)
Humidity59 %78 % (11:51 pm)37 % (3:51 pm)
Barometer30.02 in30.05 in (11:51 pm)29.99 in (5:51 pm)
Wind Speed10 mph15 mph (5:51 pm)
Wind Gust20.7 mph (2:51 am)
Weather ElementAverage
Visibility10 mi
Wind DirectionWSW (259.2 °)

Weather ElementTotal
Precipitation---
Cooling Degree Days10.5 (Base 65)
Growing Degree Days25.5 (Base 50)
Averaged from 24 records on July 26, 2013
WEATHER CONDITIONS BREAKOUT
WIND DIRECTION BREAKOUT
WEATHER BY HOUR - JULY 26, 2013
[ °C ]   °F
Local TimeTemperatureDewpointHumidityBarometerVisibilityWind DirectionWind SpeedGust SpeedPrecipitationEventsConditions
1:51 AM66.9 °F57.9 °F73 %30.02 in10.0 miNNE (30°)10.4 mphOvercast
2:51 AM66.9 °F57.9 °F73 %30.00 in10.0 miNNE (20°)13.8 mph20.7 mphOvercast
3:51 AM66.9 °F59.0 °F76 %30.01 in10.0 miNorth (10°)12.7 mphOvercast
4:51 AM66.9 °F59.0 °F76 %30.00 in10.0 miNorth (360°)9.2 mphOvercast
5:51 AM68.0 °F59.0 °F73 %30.01 in10.0 miNorth (360°)12.7 mphOvercast
6:51 AM68.0 °F59.0 °F73 %30.02 in10.0 miNorth (360°)11.5 mphOvercast
7:22 AM69.8 °F59.0 °F68 %30.01 in10.0 miNorth (360°)11.5 mphMostly Cloudy
7:51 AM69.1 °F59.0 °F70 %30.01 in10.0 miNorth (360°)11.5 mphMostly Cloudy
8:51 AM70.0 °F59.0 °F68 %30.04 in10.0 miNNW (340°)11.5 mphMostly Cloudy
9:51 AM72.0 °F59.0 °F64 %30.03 in10.0 miNorth (360°)10.4 mphMostly Cloudy
10:51 AM73.9 °F59.0 °F59 %30.04 in10.0 miNW (310°)9.2 mphMostly Cloudy
11:51 AM75.0 °F59.0 °F57 %30.04 in10.0 miWest (280°)5.8 mphMostly Cloudy
12:51 PM80.1 °F60.1 °F50 %30.02 in10.0 miWNW (300°)4.6 mphMostly Cloudy
1:51 PM81.0 °F57.9 °F45 %30.01 in10.0 miNNW (330°)9.2 mphMostly Cloudy
2:51 PM82.9 °F55.9 °F39 %30.01 in10.0 miWest (270°)8.1 mphMostly Cloudy
3:51 PM84.0 °F55.0 °F37 %30.00 in10.0 miNNW (330°)5.8 mphScattered Clouds
4:51 PM82.0 °F59.0 °F45 %30.00 in10.0 miWest (260°)9.2 mphMostly Cloudy
5:51 PM82.9 °F57.0 °F41 %29.99 in10.0 miWest (260°)15.0 mphMostly Cloudy
6:51 PM82.9 °F55.9 °F39 %30.00 in10.0 miWest (260°)12.7 mphScattered Clouds
7:51 PM81.0 °F55.0 °F41 %30.00 in10.0 miWSW (240°)9.2 mphScattered Clouds
8:51 PM79.0 °F55.0 °F44 %30.01 in10.0 miSW (230°)11.5 mphScattered Clouds
9:51 PM75.9 °F57.9 °F54 %30.03 in10.0 miSSW (200°)10.4 mphScattered Clouds
10:51 PM73.9 °F64.9 °F73 %30.04 in10.0 miSouth (190°)8.1 mphScattered Clouds
11:51 PM72.0 °F64.9 °F78 %30.05 in10.0 miSSW (200°)6.9 mphPartly Cloudy
Hourly data recorded from KEWR, located miles away from Staten Island, New York







STORIES FROM OUR PARTNERS